| time (UTC) | temp F | wind direction | speed MPH | gust MPH | rain 1hr in | rain 24hr in | rain mn in | humidity % | barometer mb |
| 20260507072605 | 54 | 90 | 1.0 | 1.0 | 0.01 | 0.05 | 0.04 | 76 | 1009.7 |
| 20260507072103 | 54 | 90 | 1.0 | 1.0 | 0.01 | 0.05 | 0.04 | 76 | 1009.7 |
| 20260507071604 | 54 | 90 | 1.0 | 1.0 | 0.00 | 0.04 | 0.04 | 78 | 1009.6 |
| 20260507071103 | 54 | 90 | 1.0 | 1.0 | 0.00 | 0.04 | 0.04 | 78 | 1009.6 |
| 20260507070601 | 54 | 90 | 1.0 | 1.0 | 0.00 | 0.04 | 0.04 | 78 | 1009.5 |
| 20260507070100 | 54 | 90 | 1.0 | 1.0 | 0.00 | 0.04 | 0.04 | 78 | 1009.5 |
| 20260507065558 | 54 | 90 | 1.0 | 2.0 | 0.01 | 0.04 | 0.04 | 79 | 1009.4 |
| 20260507065058 | 54 | 90 | 1.0 | 2.0 | 0.01 | 0.04 | 0.04 | 79 | 1009.4 |
| 20260507064557 | 54 | 90 | 1.0 | 1.0 | 0.01 | 0.04 | 0.04 | 80 | 1009.1 |
| 20260507064056 | 54 | 90 | 1.0 | 1.0 | 0.01 | 0.04 | 0.04 | 80 | 1009.1 |
| 20260507063555 | 53 | 90 | 1.0 | 1.0 | 0.01 | 0.04 | 0.04 | 81 | 1009.0 |
| 20260507063054 | 53 | 90 | 1.0 | 1.0 | 0.01 | 0.04 | 0.04 | 81 | 1009.0 |
| 20260507062554 | 53 | 90 | 1.0 | 2.0 | 0.01 | 0.04 | 0.04 | 81 | 1008.9 |
| 20260507062053 | 53 | 90 | 1.0 | 2.0 | 0.01 | 0.04 | 0.04 | 81 | 1008.9 |
| 20260507061551 | 53 | 90 | 1.0 | 1.0 | 0.02 | 0.04 | 0.04 | 81 | 1008.8 |
| 20260507061051 | 53 | 90 | 1.0 | 1.0 | 0.02 | 0.04 | 0.04 | 81 | 1008.8 |
| 20260507060550 | 53 | 90 | 1.0 | 2.0 | 0.02 | 0.04 | 0.04 | 81 | 1008.7 |
| 20260507060048 | 53 | 90 | 1.0 | 2.0 | 0.02 | 0.04 | 0.04 | 81 | 1008.7 |
| 20260507055547 | 53 | 90 | 1.0 | 2.0 | 0.02 | 0.04 | 0.03 | 81 | 1008.5 |
| 20260507055046 | 53 | 90 | 1.0 | 2.0 | 0.02 | 0.04 | 0.03 | 81 | 1008.5 |
| 20260507054545 | 53 | 90 | 1.0 | 2.0 | 0.02 | 0.03 | 0.03 | 81 | 1008.4 |
| 20260507054044 | 53 | 90 | 1.0 | 2.0 | 0.02 | 0.03 | 0.03 | 81 | 1008.4 |
| 20260507053542 | 53 | 90 | 1.0 | 1.0 | 0.01 | 0.03 | 0.02 | 80 | 1008.2 |
| 20260507053042 | 53 | 90 | 1.0 | 1.0 | 0.02 | 0.03 | 0.02 | 80 | 1008.2 |
| 20260507052541 | 53 | 90 | 1.0 | 1.0 | 0.02 | 0.03 | 0.02 | 80 | 1008.1 |
| 20260507052045 | 53 | 90 | 1.0 | 1.0 | 0.02 | 0.03 | 0.02 | 80 | 1008.1 |
| 20260507051542 | 53 | 90 | 1.0 | 3.0 | 0.01 | 0.02 | 0.02 | 79 | 1008.1 |
| 20260507051038 | 53 | 90 | 1.0 | 3.0 | 0.01 | 0.02 | 0.02 | 79 | 1008.1 |
| 20260507050537 | 53 | 90 | 1.0 | 1.0 | 0.01 | 0.02 | 0.02 | 80 | 1008.0 |
| 20260507050036 | 53 | 90 | 1.0 | 1.0 | 0.01 | 0.02 | 0.02 | 80 | 1008.0 |
| 20260507045535 | 54 | 90 | 1.0 | 1.0 | 0.01 | 0.02 | 0.02 | 80 | 1007.9 |
| 20260507045033 | 54 | 90 | 1.0 | 2.0 | 0.00 | 0.02 | 0.01 | 80 | 1007.8 |
| 20260507044532 | 54 | 90 | 1.0 | 2.0 | 0.00 | 0.02 | 0.01 | 80 | 1007.8 |
| 20260507044032 | 54 | 90 | 1.0 | 1.0 | 0.00 | 0.02 | 0.01 | 79 | 1007.7 |
| 20260507043533 | 54 | 90 | 1.0 | 1.0 | 0.00 | 0.02 | 0.01 | 79 | 1007.7 |
| 20260507043031 | 54 | 90 | 1.0 | 1.0 | 0.00 | 0.01 | 0.01 | 79 | 1007.5 |
| 20260507042529 | 54 | 90 | 1.0 | 1.0 | 0.00 | 0.01 | 0.01 | 79 | 1007.5 |
| 20260507042030 | 54 | 90 | 1.0 | 3.0 | 0.00 | 0.01 | 0.01 | 79 | 1007.5 |
| 20260507041527 | 54 | 90 | 1.0 | 3.0 | 0.00 | 0.01 | 0.01 | 79 | 1007.5 |
| 20260507041026 | 54 | 90 | 1.0 | 1.0 | 0.00 | 0.01 | 0.01 | 79 | 1007.4 |
| 20260507040525 | 54 | 90 | 1.0 | 1.0 | 0.00 | 0.01 | 0.01 | 79 | 1007.4 |
| 20260507040024 | 54 | 125 | 1.0 | 1.0 | 0.00 | 0.01 | 0.01 | 79 | 1007.4 |
| 20260507035523 | 54 | 125 | 1.0 | 1.0 | 0.00 | 0.01 | 0.01 | 79 | 1007.4 |
| 20260507035022 | 54 | 90 | 1.0 | 1.0 | 0.00 | 0.01 | 0.01 | 79 | 1007.3 |
| 20260507034521 | 54 | 90 | 1.0 | 1.0 | 0.00 | 0.01 | 0.01 | 79 | 1007.3 |
| 20260507034020 | 55 | 90 | 1.0 | 1.0 | 0.00 | 0.01 | 0.01 | 80 | 1007.3 |
| 20260507033518 | 55 | 90 | 1.0 | 1.0 | 0.00 | 0.01 | 0.01 | 80 | 1007.3 |
| 20260507033018 | 55 | 90 | 1.0 | 1.0 | 0.00 | 0.01 | 0.01 | 80 | 1007.3 |
| 20260507032517 | 55 | 90 | 1.0 | 1.0 | 0.00 | 0.01 | 0.01 | 80 | 1007.3 |
| 20260507032016 | 55 | 90 | 1.0 | 1.0 | 0.00 | 0.02 | 0.01 | 80 | 1007.2 |
| 20260507031014 | 55 | 90 | 1.0 | 1.0 | 0.00 | 0.02 | 0.01 | 80 | 1007.1 |
| 20260507030012 | 55 | 90 | 1.0 | 1.0 | 0.00 | 0.02 | 0.01 | 81 | 1007.1 |
| 20260507025010 | 55 | 90 | 1.0 | 1.0 | 0.00 | 0.02 | 0.01 | 83 | 1007.1 |
| 20260507024008 | 55 | 90 | 1.0 | 1.0 | 0.00 | 0.02 | 0.01 | 85 | 1007.1 |
| 20260507023006 | 56 | 90 | 1.0 | 1.0 | 0.00 | 0.02 | 0.01 | 79 | 1007.0 |
| 20260507022004 | 56 | 90 | 1.0 | 1.0 | 0.00 | 0.02 | 0.01 | 79 | 1007.1 |
| 20260507021002 | 56 | 90 | 1.0 | 1.0 | 0.01 | 0.02 | 0.01 | 79 | 1007.1 |
| 20260507020002 | 56 | 135 | 1.0 | 1.0 | 0.01 | 0.02 | 0.01 | 79 | 1007.1 |
| 20260507015459 | 56 | 135 | 1.0 | 1.0 | 0.01 | 0.02 | 0.01 | 79 | 1007.1 |
| 20260507014958 | 56 | 90 | 1.0 | 1.0 | 0.01 | 0.02 | 0.01 | 79 | 1007.1 |
| 20260507014457 | 56 | 90 | 1.0 | 1.0 | 0.01 | 0.02 | 0.01 | 79 | 1007.1 |
| 20260507013956 | 56 | 90 | 1.0 | 1.0 | 0.00 | 0.01 | 0.00 | 79 | 1007.1 |
| 20260507013455 | 56 | 90 | 1.0 | 1.0 | 0.00 | 0.01 | 0.00 | 79 | 1007.1 |
| 20260507012954 | 56 | 90 | 1.0 | 2.0 | 0.00 | 0.02 | 0.00 | 78 | 1007.1 |
| 20260507012453 | 56 | 90 | 1.0 | 2.0 | 0.00 | 0.02 | 0.00 | 78 | 1007.1 |
| 20260507011952 | 57 | 90 | 1.0 | 2.0 | 0.00 | 0.01 | 0.00 | 77 | 1007.0 |
| 20260507011451 | 57 | 90 | 1.0 | 2.0 | 0.00 | 0.01 | 0.00 | 77 | 1007.0 |
| 20260507010950 | 57 | 90 | 1.0 | 1.0 | 0.00 | 0.01 | 0.00 | 77 | 1006.9 |
| 20260507010449 | 57 | 90 | 1.0 | 1.0 | 0.00 | 0.01 | 0.00 | 77 | 1006.9 |
| 20260507005947 | 57 | 90 | 1.0 | 1.0 | 0.00 | 0.01 | 0.00 | 77 | 1006.8 |
| 20260507005447 | 57 | 90 | 1.0 | 1.0 | 0.00 | 0.01 | 0.00 | 77 | 1006.8 |
| 20260507004946 | 57 | 90 | 1.0 | 2.0 | 0.00 | 0.01 | 0.00 | 77 | 1006.8 |
| 20260507004445 | 57 | 90 | 1.0 | 2.0 | 0.00 | 0.01 | 0.00 | 77 | 1006.8 |
| 20260507003944 | 57 | 90 | 1.0 | 1.0 | 0.00 | 0.01 | 0.00 | 76 | 1006.7 |
| 20260507003442 | 57 | 90 | 1.0 | 1.0 | 0.00 | 0.01 | 0.00 | 76 | 1006.7 |
| 20260507002942 | 57 | 126 | 1.0 | 1.0 | 0.00 | 0.01 | 0.00 | 77 | 1006.6 |
| 20260507002441 | 57 | 126 | 1.0 | 1.0 | 0.00 | 0.02 | 0.00 | 77 | 1006.6 |
| 20260507001940 | 57 | 90 | 1.0 | 1.0 | 0.00 | 0.02 | 0.00 | 76 | 1006.6 |
| 20260507001438 | 57 | 90 | 1.0 | 1.0 | 0.00 | 0.02 | 0.00 | 76 | 1006.6 |
| 20260507000938 | 57 | 135 | 1.0 | 1.0 | 0.00 | 0.02 | 0.00 | 77 | 1006.6 |
| 20260507000437 | 57 | 135 | 1.0 | 1.0 | 0.00 | 0.02 | 0.00 | 77 | 1006.6 |
| 20260506235935 | 58 | 90 | 1.0 | 1.0 | 0.00 | 0.02 | 0.00 | 77 | 1006.7 |
| 20260506235435 | 58 | 90 | 1.0 | 1.0 | 0.00 | 0.02 | 0.00 | 77 | 1006.7 |
| 20260506234934 | 58 | 125 | 1.0 | 1.0 | 0.00 | 0.02 | 0.00 | 77 | 1006.5 |
| 20260506234433 | 58 | 125 | 1.0 | 1.0 | 0.00 | 0.02 | 0.00 | 77 | 1006.5 |
| 20260506233932 | 58 | 90 | 1.0 | 1.0 | 0.00 | 0.02 | 0.00 | 78 | 1006.5 |
| 20260506233430 | 58 | 90 | 1.0 | 1.0 | 0.00 | 0.03 | 0.00 | 78 | 1006.5 |
| 20260506232930 | 58 | 135 | 1.0 | 1.0 | 0.00 | 0.03 | 0.00 | 78 | 1006.4 |
| 20260506232429 | 58 | 135 | 1.0 | 1.0 | 0.00 | 0.03 | 0.00 | 78 | 1006.4 |
| 20260506231928 | 58 | 90 | 1.0 | 1.0 | 0.00 | 0.03 | 0.00 | 78 | 1006.4 |
| 20260506231427 | 58 | 90 | 1.0 | 1.0 | 0.00 | 0.03 | 0.00 | 78 | 1006.4 |
| 20260506230926 | 58 | 90 | 1.0 | 1.0 | 0.00 | 0.03 | 0.00 | 79 | 1006.2 |
| 20260506230424 | 58 | 90 | 1.0 | 1.0 | 0.00 | 0.03 | 0.00 | 79 | 1006.2 |
| 20260506225924 | 58 | 90 | 1.0 | 2.0 | 0.00 | 0.03 | 0.00 | 78 | 1006.2 |
| 20260506225423 | 58 | 90 | 1.0 | 2.0 | 0.00 | 0.03 | 0.00 | 78 | 1006.2 |
| 20260506224922 | 58 | 90 | 1.0 | 1.0 | 0.00 | 0.03 | 0.00 | 78 | 1006.1 |
| 20260506224420 | 58 | 90 | 1.0 | 1.0 | 0.00 | 0.04 | 0.00 | 78 | 1006.1 |
| 20260506223920 | 59 | 123 | 1.0 | 2.0 | 0.00 | 0.04 | 0.00 | 78 | 1006.2 |
| 20260506223419 | 59 | 123 | 1.0 | 2.0 | 0.00 | 0.04 | 0.00 | 78 | 1006.2 |
| 20260506222918 | 59 | 90 | 1.0 | 2.0 | 0.00 | 0.04 | 0.00 | 78 | 1006.1 |
| 20260506222416 | 59 | 90 | 1.0 | 2.0 | 0.00 | 0.04 | 0.00 | 78 | 1006.1 |
| 20260506221916 | 59 | 90 | 1.0 | 1.0 | 0.00 | 0.04 | 0.00 | 78 | 1006.0 |
| 20260506221415 | 59 | 90 | 1.0 | 1.0 | 0.00 | 0.06 | 0.00 | 78 | 1006.0 |
| 20260506220915 | 59 | 90 | 1.0 | 1.0 | 0.00 | 0.06 | 0.00 | 78 | 1005.9 |
| 20260506220413 | 59 | 90 | 1.0 | 1.0 | 0.00 | 0.09 | 0.00 | 78 | 1005.9 |
| 20260506215912 | 59 | 123 | 1.0 | 1.0 | 0.00 | 0.09 | 0.09 | 78 | 1005.8 |
| 20260506215410 | 59 | 123 | 1.0 | 1.0 | 0.00 | 0.11 | 0.09 | 78 | 1005.8 |
| 20260506214910 | 59 | 90 | 1.0 | 1.0 | 0.00 | 0.11 | 0.09 | 78 | 1005.7 |
| 20260506214409 | 59 | 90 | 1.0 | 1.0 | 0.00 | 0.13 | 0.09 | 78 | 1005.7 |
| 20260506213908 | 59 | 90 | 1.0 | 2.0 | 0.00 | 0.13 | 0.09 | 79 | 1005.9 |
| 20260506213406 | 59 | 90 | 1.0 | 2.0 | 0.00 | 0.15 | 0.09 | 79 | 1005.9 |
| 20260506212906 | 59 | 90 | 1.0 | 1.0 | 0.00 | 0.15 | 0.09 | 78 | 1005.9 |
| 20260506212405 | 59 | 90 | 1.0 | 1.0 | 0.00 | 0.17 | 0.09 | 78 | 1005.9 |
| 20260506211905 | 59 | 90 | 1.0 | 1.0 | 0.00 | 0.17 | 0.09 | 78 | 1005.7 |
| 20260506211403 | 59 | 90 | 1.0 | 1.0 | 0.00 | 0.18 | 0.09 | 78 | 1005.7 |
| 20260506210903 | 60 | 90 | 1.0 | 1.0 | 0.00 | 0.18 | 0.09 | 78 | 1005.6 |
| 20260506210400 | 60 | 90 | 1.0 | 1.0 | 0.00 | 0.19 | 0.09 | 78 | 1005.6 |
| 20260506205900 | 60 | 90 | 1.0 | 1.0 | 0.00 | 0.19 | 0.09 | 78 | 1005.6 |
| 20260506205359 | 60 | 90 | 1.0 | 1.0 | 0.00 | 0.19 | 0.09 | 78 | 1005.6 |
| 20260506204859 | 60 | 125 | 1.0 | 1.0 | 0.00 | 0.19 | 0.09 | 78 | 1005.4 |
| 20260506204357 | 60 | 125 | 1.0 | 1.0 | 0.00 | 0.19 | 0.09 | 78 | 1005.4 |
| 20260506203857 | 60 | 125 | 1.0 | 1.0 | 0.00 | 0.19 | 0.09 | 78 | 1005.4 |
| 20260506203355 | 60 | 126 | 1.0 | 1.0 | 0.00 | 0.19 | 0.09 | 78 | 1005.4 |
| 20260506202854 | 60 | 126 | 1.0 | 1.0 | 0.00 | 0.19 | 0.09 | 78 | 1005.4 |
| 20260506202353 | 60 | 90 | 1.0 | 1.0 | 0.00 | 0.19 | 0.09 | 78 | 1005.5 |
| 20260506201852 | 60 | 90 | 1.0 | 1.0 | 0.00 | 0.19 | 0.09 | 78 | 1005.5 |
| 20260506201351 | 60 | 90 | 1.0 | 2.0 | 0.00 | 0.19 | 0.09 | 78 | 1005.6 |
| 20260506200849 | 60 | 90 | 1.0 | 2.0 | 0.00 | 0.19 | 0.09 | 78 | 1005.6 |
| 20260506200349 | 61 | 125 | 1.0 | 1.0 | 0.00 | 0.19 | 0.09 | 78 | 1005.5 |
| 20260506195848 | 61 | 125 | 1.0 | 1.0 | 0.00 | 0.19 | 0.09 | 78 | 1005.5 |
| 20260506195347 | 61 | 90 | 1.0 | 1.0 | 0.00 | 0.19 | 0.09 | 77 | 1005.6 |
| 20260506194845 | 61 | 90 | 1.0 | 1.0 | 0.00 | 0.19 | 0.09 | 77 | 1005.6 |
| 20260506194346 | 61 | 90 | 1.0 | 1.0 | 0.00 | 0.19 | 0.09 | 76 | 1005.4 |
| 20260506193844 | 61 | 90 | 1.0 | 1.0 | 0.00 | 0.19 | 0.09 | 76 | 1005.4 |
| 20260506193342 | 61 | 90 | 1.0 | 2.0 | 0.00 | 0.19 | 0.09 | 76 | 1005.3 |
| 20260506192843 | 61 | 90 | 1.0 | 2.0 | 0.00 | 0.19 | 0.09 | 76 | 1005.3 |
| 20260506192342 | 62 | 90 | 1.0 | 1.0 | 0.00 | 0.19 | 0.09 | 76 | 1005.0 |
| 20260506191840 | 62 | 90 | 1.0 | 1.0 | 0.00 | 0.19 | 0.09 | 76 | 1005.0 |
| 20260506191339 | 62 | 90 | 1.0 | 1.0 | 0.00 | 0.19 | 0.09 | 76 | 1004.9 |
| 20260506190838 | 62 | 90 | 1.0 | 1.0 | 0.00 | 0.19 | 0.09 | 76 | 1004.9 |
| 20260506190336 | 62 | 90 | 1.0 | 1.0 | 0.00 | 0.19 | 0.08 | 76 | 1004.9 |
| 20260506185836 | 62 | 90 | 1.0 | 1.0 | 0.00 | 0.19 | 0.08 | 76 | 1004.9 |
| 20260506185335 | 62 | 90 | 1.0 | 1.0 | 0.00 | 0.19 | 0.08 | 75 | 1004.9 |
| 20260506184834 | 62 | 90 | 1.0 | 1.0 | 0.00 | 0.19 | 0.08 | 75 | 1004.9 |
| 20260506184332 | 62 | 149 | 1.0 | 1.0 | 0.00 | 0.19 | 0.08 | 74 | 1005.0 |
| 20260506183831 | 62 | 149 | 1.0 | 1.0 | 0.00 | 0.19 | 0.08 | 74 | 1005.0 |
| 20260506183331 | 63 | 135 | 1.0 | 2.0 | 0.00 | 0.19 | 0.08 | 74 | 1004.8 |
| 20260506182830 | 63 | 135 | 1.0 | 2.0 | 0.00 | 0.19 | 0.08 | 74 | 1004.8 |
| 20260506182329 | 63 | 154 | 1.0 | 1.0 | 0.00 | 0.19 | 0.08 | 75 | 1004.4 |
| 20260506181828 | 63 | 154 | 1.0 | 1.0 | 0.00 | 0.19 | 0.08 | 75 | 1004.4 |
| 20260506181327 | 64 | 165 | 1.0 | 1.0 | 0.00 | 0.19 | 0.08 | 74 | 1004.4 |
| 20260506180826 | 64 | 165 | 1.0 | 1.0 | 0.00 | 0.19 | 0.08 | 74 | 1004.4 |
| 20260506180326 | 64 | 176 | 1.0 | 1.0 | 0.00 | 0.19 | 0.08 | 72 | 1004.2 |
| 20260506175824 | 64 | 176 | 1.0 | 1.0 | 0.00 | 0.19 | 0.08 | 72 | 1004.2 |
| 20260506175323 | 64 | 173 | 1.0 | 2.0 | 0.00 | 0.19 | 0.08 | 70 | 1004.2 |
| 20260506174822 | 64 | 173 | 1.0 | 2.0 | 0.00 | 0.19 | 0.08 | 70 | 1004.2 |
| 20260506174321 | 65 | 168 | 1.0 | 1.0 | 0.00 | 0.19 | 0.08 | 70 | 1004.1 |
| 20260506173820 | 65 | 168 | 1.0 | 1.0 | 0.00 | 0.19 | 0.08 | 70 | 1004.1 |
| 20260506173318 | 65 | 176 | 1.0 | 1.0 | 0.00 | 0.19 | 0.08 | 70 | 1004.1 |
| 20260506172818 | 65 | 176 | 1.0 | 1.0 | 0.00 | 0.19 | 0.08 | 70 | 1004.1 |
| 20260506172317 | 65 | 171 | 1.0 | 2.0 | 0.00 | 0.19 | 0.08 | 69 | 1003.9 |
| 20260506171817 | 65 | 171 | 1.0 | 2.0 | 0.00 | 0.19 | 0.08 | 69 | 1003.9 |
| 20260506171315 | 66 | 180 | 1.0 | 1.0 | 0.00 | 0.19 | 0.08 | 69 | 1003.7 |
| 20260506170814 | 66 | 180 | 1.0 | 1.0 | 0.00 | 0.19 | 0.08 | 69 | 1003.7 |
| 20260506170312 | 66 | 180 | 1.0 | 1.0 | 0.00 | 0.19 | 0.08 | 69 | 1003.8 |
| 20260506165811 | 66 | 180 | 1.0 | 1.0 | 0.00 | 0.19 | 0.08 | 69 | 1003.8 |
| 20260506165311 | 67 | 177 | 1.0 | 2.0 | 0.00 | 0.19 | 0.08 | 69 | 1003.7 |
| 20260506164810 | 67 | 177 | 1.0 | 2.0 | 0.00 | 0.19 | 0.08 | 69 | 1003.7 |
| 20260506164308 | 67 | 176 | 1.0 | 2.0 | 0.00 | 0.19 | 0.08 | 68 | 1003.6 |
| 20260506163808 | 67 | 176 | 1.0 | 2.0 | 0.00 | 0.19 | 0.08 | 68 | 1003.6 |
| 20260506163307 | 68 | 177 | 1.0 | 2.0 | 0.00 | 0.19 | 0.08 | 67 | 1003.6 |
| 20260506162806 | 68 | 177 | 1.0 | 2.0 | 0.00 | 0.19 | 0.08 | 67 | 1003.6 |
| 20260506162408 | 68 | 180 | 1.0 | 2.0 | 0.00 | 0.19 | 0.08 | 66 | 1003.6 |
| 20260506161904 | 68 | 180 | 1.0 | 2.0 | 0.00 | 0.19 | 0.08 | 66 | 1003.6 |
| 20260506161303 | 69 | 185 | 1.0 | 2.0 | 0.00 | 0.19 | 0.08 | 66 | 1003.7 |
| 20260506160802 | 69 | 185 | 1.0 | 2.0 | 0.00 | 0.19 | 0.08 | 66 | 1003.7 |
| 20260506160301 | 69 | 186 | 1.0 | 1.0 | 0.00 | 0.19 | 0.08 | 66 | 1003.6 |
| 20260506155800 | 69 | 186 | 1.0 | 1.0 | 0.00 | 0.19 | 0.08 | 66 | 1003.6 |
| 20260506155258 | 69 | 188 | 1.0 | 1.0 | 0.00 | 0.19 | 0.08 | 65 | 1003.5 |
| 20260506154757 | 69 | 188 | 1.0 | 1.0 | 0.00 | 0.19 | 0.08 | 65 | 1003.5 |
| 20260506154257 | 69 | 183 | 1.0 | 1.0 | 0.00 | 0.19 | 0.08 | 65 | 1003.6 |
| 20260506153756 | 69 | 183 | 1.0 | 1.0 | 0.00 | 0.19 | 0.08 | 65 | 1003.6 |
| 20260506153255 | 69 | 171 | 1.0 | 2.0 | 0.00 | 0.19 | 0.08 | 66 | 1003.7 |
| 20260506152753 | 69 | 171 | 1.0 | 2.0 | 0.00 | 0.19 | 0.08 | 66 | 1003.7 |
| 20260506152253 | 68 | 180 | 1.0 | 1.0 | 0.00 | 0.19 | 0.08 | 65 | 1003.6 |
| 20260506151752 | 68 | 180 | 1.0 | 1.0 | 0.00 | 0.19 | 0.08 | 65 | 1003.6 |
| 20260506151251 | 69 | 185 | 1.0 | 3.0 | 0.00 | 0.19 | 0.08 | 65 | 1003.7 |
| 20260506150750 | 69 | 185 | 1.0 | 3.0 | 0.00 | 0.19 | 0.08 | 65 | 1003.7 |
| 20260506150249 | 69 | 173 | 1.0 | 1.0 | 0.00 | 0.19 | 0.08 | 65 | 1003.7 |
| 20260506145747 | 69 | 173 | 1.0 | 1.0 | 0.00 | 0.19 | 0.08 | 65 | 1003.7 |
| 20260506145246 | 68 | 177 | 1.0 | 2.0 | 0.00 | 0.19 | 0.08 | 64 | 1003.7 |
| 20260506144746 | 68 | 177 | 1.0 | 2.0 | 0.00 | 0.19 | 0.08 | 64 | 1003.7 |
| 20260506144246 | 68 | 173 | 1.0 | 1.0 | 0.00 | 0.19 | 0.08 | 64 | 1003.8 |
| 20260506143744 | 68 | 173 | 1.0 | 1.0 | 0.00 | 0.19 | 0.08 | 64 | 1003.8 |
| 20260506143244 | 69 | 194 | 1.0 | 1.0 | 0.00 | 0.19 | 0.08 | 65 | 1003.8 |
| 20260506142742 | 69 | 194 | 1.0 | 1.0 | 0.00 | 0.19 | 0.08 | 65 | 1003.8 |
| 20260506142241 | 69 | 192 | 1.0 | 2.0 | 0.00 | 0.19 | 0.08 | 66 | 1003.8 |
| 20260506141740 | 69 | 192 | 1.0 | 2.0 | 0.00 | 0.19 | 0.08 | 66 | 1003.8 |
| 20260506141239 | 69 | 192 | 1.0 | 2.0 | 0.00 | 0.19 | 0.08 | 66 | 1003.9 |
| 20260506140739 | 69 | 192 | 1.0 | 2.0 | 0.00 | 0.19 | 0.08 | 66 | 1003.9 |
| 20260506140237 | 69 | 190 | 1.0 | 2.0 | 0.00 | 0.19 | 0.08 | 67 | 1004.0 |
| 20260506135736 | 69 | 190 | 1.0 | 2.0 | 0.00 | 0.19 | 0.08 | 67 | 1004.0 |
| 20260506135235 | 68 | 174 | 1.0 | 2.0 | 0.00 | 0.19 | 0.08 | 68 | 1004.0 |
| 20260506134734 | 68 | 174 | 1.0 | 2.0 | 0.00 | 0.19 | 0.08 | 68 | 1004.0 |
| 20260506134233 | 68 | 177 | 1.0 | 2.0 | 0.00 | 0.19 | 0.08 | 70 | 1004.1 |
| 20260506133732 | 68 | 177 | 1.0 | 2.0 | 0.00 | 0.19 | 0.08 | 70 | 1004.1 |
| 20260506133231 | 68 | 180 | 1.0 | 2.0 | 0.00 | 0.19 | 0.08 | 67 | 1004.1 |
| 20260506132729 | 68 | 180 | 1.0 | 2.0 | 0.00 | 0.19 | 0.08 | 67 | 1004.1 |
| 20260506132229 | 69 | 188 | 1.0 | 2.0 | 0.00 | 0.19 | 0.08 | 64 | 1004.1 |
| 20260506131728 | 69 | 188 | 1.0 | 2.0 | 0.00 | 0.19 | 0.08 | 64 | 1004.1 |
| 20260506131227 | 69 | 194 | 1.0 | 2.0 | 0.00 | 0.19 | 0.08 | 64 | 1004.0 |
| 20260506130726 | 69 | 194 | 1.0 | 2.0 | 0.00 | 0.19 | 0.08 | 64 | 1004.0 |
| 20260506130224 | 69 | 188 | 1.0 | 2.0 | 0.00 | 0.19 | 0.08 | 63 | 1004.1 |
| 20260506125723 | 69 | 188 | 1.0 | 2.0 | 0.00 | 0.19 | 0.08 | 63 | 1004.1 |
| 20260506125223 | 69 | 190 | 1.0 | 2.0 | 0.00 | 0.19 | 0.08 | 63 | 1004.0 |
| 20260506124722 | 69 | 190 | 1.0 | 2.0 | 0.00 | 0.19 | 0.08 | 63 | 1004.0 |
| 20260506124220 | 69 | 191 | 1.0 | 3.0 | 0.00 | 0.19 | 0.08 | 63 | 1004.1 |
| 20260506123720 | 69 | 191 | 1.0 | 3.0 | 0.00 | 0.19 | 0.08 | 63 | 1004.1 |
| 20260506123339 | 68 | 194 | 1.0 | 2.0 | 0.00 | 0.19 | 0.08 | 65 | 1004.1 |
| 20260506122718 | 68 | 194 | 1.0 | 2.0 | 0.00 | 0.19 | 0.08 | 65 | 1004.1 |
| 20260506122216 | 68 | 192 | 1.0 | 1.0 | 0.00 | 0.19 | 0.08 | 65 | 1004.1 |
| 20260506121716 | 68 | 192 | 1.0 | 1.0 | 0.00 | 0.19 | 0.08 | 65 | 1004.1 |
| 20260506121215 | 68 | 187 | 1.0 | 2.0 | 0.00 | 0.19 | 0.08 | 64 | 1004.1 |
| 20260506120713 | 68 | 187 | 1.0 | 2.0 | 0.00 | 0.19 | 0.08 | 64 | 1004.1 |
| 20260506120212 | 68 | 190 | 1.0 | 2.0 | 0.00 | 0.19 | 0.08 | 65 | 1004.2 |
| 20260506115712 | 68 | 190 | 1.0 | 2.0 | 0.00 | 0.19 | 0.08 | 65 | 1004.2 |
| 20260506115211 | 68 | 185 | 1.0 | 2.0 | 0.00 | 0.19 | 0.08 | 65 | 1004.1 |
| 20260506114710 | 68 | 185 | 1.0 | 2.0 | 0.00 | 0.19 | 0.08 | 65 | 1004.1 |
| 20260506114208 | 67 | 191 | 1.0 | 1.0 | 0.00 | 0.19 | 0.08 | 66 | 1004.2 |
| 20260506113708 | 67 | 191 | 1.0 | 1.0 | 0.00 | 0.19 | 0.08 | 66 | 1004.2 |
| 20260506113208 | 67 | 191 | 1.0 | 2.0 | 0.00 | 0.19 | 0.08 | 66 | 1004.3 |
| 20260506112707 | 67 | 191 | 1.0 | 2.0 | 0.00 | 0.19 | 0.08 | 66 | 1004.3 |
| 20260506112204 | 67 | 188 | 1.0 | 1.0 | 0.00 | 0.19 | 0.08 | 67 | 1004.3 |
| 20260506111704 | 67 | 188 | 1.0 | 1.0 | 0.00 | 0.19 | 0.08 | 67 | 1004.3 |
| 20260506111204 | 67 | 186 | 1.0 | 1.0 | 0.00 | 0.19 | 0.08 | 67 | 1004.3 |
| 20260506110702 | 67 | 186 | 1.0 | 1.0 | 0.00 | 0.19 | 0.08 | 67 | 1004.3 |
| 20260506110200 | 67 | 183 | 1.0 | 2.0 | 0.00 | 0.19 | 0.08 | 67 | 1004.3 |
| 20260506105659 | 67 | 183 | 1.0 | 2.0 | 0.00 | 0.19 | 0.08 | 67 | 1004.3 |
| 20260506105159 | 67 | 188 | 1.0 | 2.0 | 0.00 | 0.19 | 0.08 | 68 | 1004.4 |
| 20260506104658 | 67 | 188 | 1.0 | 2.0 | 0.00 | 0.19 | 0.08 | 68 | 1004.4 |
| 20260506104158 | 67 | 185 | 1.0 | 2.0 | 0.00 | 0.19 | 0.08 | 67 | 1004.6 |
| 20260506103656 | 67 | 185 | 1.0 | 2.0 | 0.00 | 0.19 | 0.08 | 67 | 1004.6 |
| 20260506103155 | 66 | 196 | 1.0 | 2.0 | 0.00 | 0.19 | 0.08 | 70 | 1004.5 |
| 20260506102653 | 66 | 196 | 1.0 | 2.0 | 0.00 | 0.19 | 0.08 | 70 | 1004.5 |
| 20260506102154 | 65 | 174 | 1.0 | 2.0 | 0.00 | 0.19 | 0.08 | 70 | 1004.4 |
| 20260506101652 | 65 | 174 | 1.0 | 2.0 | 0.00 | 0.19 | 0.08 | 70 | 1004.4 |
| 20260506101151 | 65 | 174 | 1.0 | 2.0 | 0.00 | 0.19 | 0.08 | 71 | 1004.3 |
| 20260506100650 | 65 | 174 | 1.0 | 2.0 | 0.00 | 0.19 | 0.08 | 71 | 1004.3 |
| 20260506100150 | 65 | 168 | 1.0 | 2.0 | 0.00 | 0.19 | 0.08 | 72 | 1004.2 |
| 20260506095648 | 65 | 168 | 1.0 | 2.0 | 0.00 | 0.19 | 0.08 | 72 | 1004.2 |
| 20260506095147 | 64 | 171 | 1.0 | 2.0 | 0.00 | 0.19 | 0.08 | 73 | 1004.3 |
| 20260506094646 | 64 | 171 | 1.0 | 2.0 | 0.00 | 0.19 | 0.08 | 73 | 1004.3 |
| 20260506094145 | 64 | 168 | 1.0 | 2.0 | 0.00 | 0.19 | 0.08 | 72 | 1004.3 |
| 20260506093644 | 64 | 168 | 1.0 | 2.0 | 0.00 | 0.19 | 0.08 | 72 | 1004.3 |
| 20260506093142 | 64 | 177 | 1.0 | 2.0 | 0.00 | 0.19 | 0.08 | 71 | 1004.2 |
| 20260506092642 | 64 | 177 | 1.0 | 2.0 | 0.00 | 0.19 | 0.08 | 71 | 1004.2 |
| 20260506092141 | 65 | 175 | 1.0 | 2.0 | 0.00 | 0.19 | 0.08 | 71 | 1004.0 |
| 20260506091640 | 65 | 175 | 1.0 | 2.0 | 0.00 | 0.19 | 0.08 | 71 | 1004.0 |
| 20260506091140 | 65 | 176 | 1.0 | 2.0 | 0.00 | 0.19 | 0.08 | 74 | 1004.0 |
| 20260506090639 | 65 | 176 | 1.0 | 2.0 | 0.00 | 0.19 | 0.08 | 74 | 1004.0 |
| 20260506090137 | 63 | 165 | 1.0 | 1.0 | 0.00 | 0.19 | 0.08 | 77 | 1003.9 |
| 20260506085637 | 63 | 165 | 1.0 | 1.0 | 0.00 | 0.19 | 0.08 | 77 | 1003.9 |
| 20260506085135 | 62 | 168 | 1.0 | 2.0 | 0.00 | 0.19 | 0.08 | 78 | 1004.0 |
| 20260506084633 | 62 | 168 | 1.0 | 2.0 | 0.00 | 0.19 | 0.08 | 78 | 1004.0 |
| 20260506084133 | 62 | 166 | 1.0 | 2.0 | 0.00 | 0.19 | 0.08 | 78 | 1004.0 |
| 20260506083632 | 62 | 166 | 1.0 | 2.0 | 0.00 | 0.19 | 0.08 | 78 | 1004.0 |
| 20260506083131 | 61 | 168 | 1.0 | 1.0 | 0.00 | 0.19 | 0.08 | 78 | 1003.9 |
| 20260506082631 | 61 | 168 | 1.0 | 1.0 | 0.00 | 0.19 | 0.08 | 78 | 1003.9 |
| 20260506082128 | 61 | 168 | 1.0 | 2.0 | 0.00 | 0.19 | 0.08 | 79 | 1003.7 |
| 20260506081628 | 61 | 168 | 1.0 | 2.0 | 0.00 | 0.19 | 0.08 | 79 | 1003.7 |
| 20260506081137 | 61 | 166 | 1.0 | 2.0 | 0.00 | 0.19 | 0.08 | 79 | 1003.7 |
| 20260506080626 | 61 | 166 | 1.0 | 2.0 | 0.00 | 0.19 | 0.08 | 79 | 1003.7 |
| 20260506080125 | 61 | 159 | 1.0 | 2.0 | 0.00 | 0.19 | 0.08 | 80 | 1003.6 |